RH
46 43 36 27 25 40 55 58 82 85 96 99 100 99 90 68 61 52 50 55 61 65 61 64 51 54 55 65 66 65 32 38 46 36 28 27 30 31 42 60 60 60 57 47
51 50 46 33 33 39 74 73 72 81 100 97 94 96 89 73 62 55 54 52 57 64 74 75 73 76 86 86 86 96 88 68 54 43 36 28 33 32 30 38 62 58 64 49
51 42 51 43 38 46 80 75 96 82 98 95 89 86 72 80 79 65 60 69 69 73 72 66 74 72 81 88 88 96 93 92 76 61 55 60 48 34 32 38 59 55 60 49
56 42 47 53 40 66 74 79 89 82 98 91 86 83 76 69 66 65 61 82 100 83 86 74 73 73 81 80 89 90 97 100 100 97 96 78 70 62 59 56 68 69 52 60
55 59 68 57 51 77 91 97 98 85 96 83 89 80 86 76 75 67 63 77 80 80 93 74 84 87 95 86 85 92 93 99 99 95 100 97 92 90 76 98 97 92 82 75
77 74 75 66 68 74 98 100 97 87 77 93 90 82 80 71 61 60 57 60 78 86 83 68 66 76 75 74 80 82 97 96 97 89 98 96 94 76 63 54 58 73 89 61
82 79 74 77 74 79 82 85 79 81 91 90 79 68 57 62 70 90 65 70 86 81 67 75 82 87 79 76 76 71 90 91 95 95 86 95 54 47 48 54 49 45 47 48
70 86 78 76 78 74 96 100 92 80 96 72 69 74 74 68 67 66 57 63 62 86 72 100 99 97 77 83 75 72 74 86 98 90 89 65 47 41 66 70 67 52 52 48
62 80 85 82 72 72 85 100 98 96 92 80 72 73 71 84 76 75 74 66 65 87 99 99 96 93 68 67 63 64 68 73 80 95 97 89 63 49 46 53 79 46 48 50
42 63 74 77 72 67 78 93 98 100 97 81 78 86 78 74 81 92 86 83 91 97 99 97 96 91 64 73 75 76 91 96 88 91 90 82 61 53 41 59 61 48 50 57
43 61 66 73 78 98 100 98 99 98 95 92 94 82 85 77 84 85 66 99 99 99 98 97 94 90 75 78 79 73 84 91 96 92 97 94 50 46 48 62 44 46 55 59
51 68 77 76 82 80 90 97 98 100 100 92 76 81 80 74 76 91 94 97 97 98 90 88 91 92 90 76 84 59 72 82 92 87 84 64 48 45 38 40 37 39 52 59
66 55 49 47 59 97 99 98 100 100 99 98 100 94 56 61 73 88 98 95 88 96 77 85 88 69 76 86 85 60 71 73 82 68 64 61 47 48 55 46 50 52 56 56
47 51 83 90 93 100 99 100 99 99 96 97 72 70 83 70 80 91 99 98 75 69 78 88 91 86 67 85 78 81 76 67 81 86 78 71 56 61 61 64 62 61 64 63
66 82 97 98 98 96 99 97 97 89 98 96 89 90 94 99 100 100 100 94 85 67 82 92 90 78 77 95 89 89 78 77 88 80 61 73 70 69 70 64 58 61 63 79
87 98 99 99 98 99 98 98 94 99 99 94 97 98 100 88 97 100 100 92 90 63 63 85 67 62 66 93 96 70 48 44 46 68 53 61 52 56 66 66 66 67 75 76
98 98 99 99 99 98 98 97 99 98 99 99 98 98 88 70 62 68 70 62 66 65 71 75 74 67 63 97 98 62 51 50 51 57 60 74 68 60 61 62 74 81 85 85
92 92 87 82 98 97 85 90 88 89 92 72 91 96 83 72 68 84 75 72 69 70 76 83 81 70 80 96 78 57 47 40 47 49 62 62 64 64 62 70 72 81 87 88
62 70 70 54 63 64 57 56 55 49 56 81 84 89 93 97 99 92 87 84 97 89 94 90 81 95 95 78 65 48 44 58 58 65 70 68 65 65 67 70 81 80 87 87
73 65 72 80 71 63 73 63 48 45 58 76 96 88 99 85 80 90 87 98 98 98 93 78 95 91 58 43 42 46 51 52 65 71 73 67 65 65 73 77 79 78 80 83
66 82 86 86 65 71 74 83 84 83 89 79 79 80 97 96 95 86 86 95 94 96 86 89 95 96 74 40 44 45 53 56 67 70 68 65 64 64 66 71 76 80 78 70
91 91 78 70 74 80 87 96 87 88 93 87 89 78 74 94 93 94 92 91 94 88 88 95 96 90 80 69 57 61 65 72 80 69 68 68 67 66 67 69 76 82 83 80
84 80 89 82 81 89 96 96 94 98 92 98 99 98 98 92 97 94 98 99 94 98 98 95 94 94 93 83 76 74 73 86 79 69 71 72 71 73 74 75 82 86 81 80
84 97 98 97 96 95 93 98 99 98 99 99 99 99 98 100 100 98 100 92 95 97 93 87 98 99 91 82 78 78 89 74 73 76 77 76 76 78 79 79 82 79 81 85
91 94 97 96 96 99 98 98 99 88 100 99 100 99 99 99 98 98 89 94 98 90 88 97 88 86 85 82 79 74 80 77 80 84 83 82 80 80 83 87 90 87 87 92
98 99 94 86 94 98 93 99 99 99 100 100 98 89 92 85 86 86 88 82 85 88 98 93 83 75 74 70 72 80 86 85 87 96 93 90 90 93 96 99 100 98 97 96
87 98 92 88 88 100 97 100 85 83 88 95 93 75 68 84 83 77 95 94 89 99 93 80 73 71 71 74 77 87 82 90 100 99 98 100 100 100 100 100 100 100 99 100
Wind_Speed
9 9 8 8 7 8 6 6 3 6 13 9 4 3 5 4 5 7 7 2 5 5 3 3 5 6 12 8 12 6 18 8 18 30 9 8 5 18 12 7 12 7 6 13
10 9 9 9 9 9 8 6 4 5 14 3 6 3 5 9 16 3 7 10 8 1 1 5 3 8 12 9 5 8 9 4 16 17 12 19 15 17 22 14 3 12 10 11
10 10 10 10 10 11 10 5 2 2 8 6 2 2 7 8 13 17 17 6 6 5 10 6 4 8 3 5 3 7 9 4 5 16 2 5 6 21 22 20 12 14 9 4
11 11 12 11 12 12 13 6 4 4 4 5 8 4 5 10 10 15 11 9 10 7 5 6 8 8 4 4 5 3 3 2 5 8 14 12 11 11 5 4 2 8 17 6
11 11 12 13 14 15 15 8 5 4 1 3 6 8 4 14 20 13 12 14 14 16 16 16 5 5 5 5 7 3 4 2 4 3 3 7 7 12 13 7 4 5 2 8
12 14 13 13 15 18 10 11 6 3 5 2 4 7 8 12 10 16 31 19 15 19 20 23 11 16 9 8 6 1 1 3 3 3 4 4 5 12 11 11 12 7 6 11
12 13 15 16 17 21 22 11 10 6 4 6 6 7 12 14 12 14 27 23 16 21 10 11 14 14 14 9 10 10 7 6 4 3 5 3 11 10 8 8 13 10 9 10
12 13 16 18 20 21 22 19 16 7 4 9 10 14 14 23 24 23 25 29 32 19 14 5 4 2 2 9 14 14 9 5 2 1 3 4 10 6 6 4 5 5 6 7
15 16 18 22 22 22 23 23 23 18 7 14 21 12 15 10 14 15 26 35 30 27 4 4 5 5 5 4 3 12 6 3 3 2 1 4 4 5 12 6 4 5 2 5
17 15 16 19 23 23 26 25 23 24 22 33 22 9 11 12 7 6 12 9 15 24 6 3 2 2 3 5 4 4 3 1 10 4 4 7 5 8 2 3 5 5 2 2
19 18 19 19 19 21 22 27 26 30 25 31 21 24 30 26 19 9 20 8 7 4 8 4 4 4 6 3 5 5 5 5 4 5 4 6 6 2 2 6 4 4 4 4
16 17 20 23 25 27 25 33 33 33 35 25 15 31 36 49 44 30 25 19 4 10 2 1 3 2 2 5 2 2 2 5 4 6 5 5 6 5 8 11 16 14 9 7
18 21 24 28 32 35 36 43 36 30 33 37 41 42 50 48 49 44 19 26 12 8 7 4 3 3 3 3 4 3 1 0 3 1 2 4 13 13 9 10 15 15 10 9
19 22 27 33 33 24 27 39 40 37 12 7 19 21 28 38 44 47 47 31 15 14 7 1 3 3 3 3 3 4 4 4 5 4 6 8 9 6 3 4 8 10 10 11
18 24 22 17 18 17 16 23 30 35 27 3 6 26 33 14 26 23 36 21 17 10 4 2 2 3 4 1 2 3 6 6 4 5 8 5 8 9 8 9 11 14 15 15
18 7 15 10 7 18 19 11 20 31 32 8 3 5 7 5 5 19 24 21 14 3 4 2 3 3 4 2 3 3 12 18 16 6 10 11 8 7 7 10 10 15 16 11
5 6 12 12 10 18 9 5 6 13 32 5 2 1 6 6 9 12 13 12 8 4 3 2 3 2 4 2 4 2 2 12 20 16 11 10 11 8 11 7 13 11 11 11
3 4 6 9 5 4 2 5 5 3 12 4 1 1 2 4 4 4 4 4 4 4 3 3 1 2 2 3 3 14 24 27 24 21 19 14 10 12 7 11 15 17 17 14
2 2 3 5 5 4 6 6 3 2 2 3 1 3 3 3 4 4 3 3 2 2 2 3 7 2 5 7 16 21 24 15 12 10 15 12 13 14 11 14 19 20 17 14
4 3 5 4 4 6 7 2 1 2 1 2 1 3 2 3 2 2 2 1 2 1 4 4 3 4 20 17 19 17 13 12 17 12 12 14 16 15 14 15 15 12 13 11
2 4 4 3 3 5 4 4 4 5 3 3 4 5 4 6 3 3 2 2 1 1 4 5 3 3 6 24 31 28 17 13 12 17 14 12 14 15 13 11 10 11 10 8
4 4 4 2 3 4 4 2 3 2 3 4 4 4 6 5 2 3 3 2 2 5 4 2 3 3 10 16 16 20 19 18 15 11 10 10 11 10 9 9 11 11 9 8
2 2 2 2 0 2 3 3 3 2 2 3 5 3 5 4 2 2 2 2 4 5 3 3 3 3 12 23 25 21 17 15 14 10 8 10 11 9 6 9 10 9 7 8
2 0 2 3 3 4 3 2 2 5 7 11 12 5 2 5 2 2 4 4 2 2 1 4 2 10 16 17 17 15 10 8 10 10 10 9 9 10 8 6 8 7 8 9
2 3 4 5 6 7 5 7 7 11 10 10 7 6 2 2 3 3 2 2 3 4 4 2 10 15 16 16 12 6 8 9 11 12 12 11 11 11 11 10 9 6 8 10
6 6 3 6 1 2 4 5 6 6 6 4 4 4 3 3 3 3 5 4 4 2 1 4 14 14 12 11 10 9 10 10 11 12 12 11 10 11 11 11 10 7 7 10
3 1 3 4 8 7 4 7 6 9 6 1 1 3 3 2 0 2 1 3 2 5 6 8 8 11 13 14 13 12 11 10 12 13 12 12 12 11 12 12 11 11 10 9
Wind_Direction
188 187 187 186 177 179 172 146 77 149 172 183 205 217 206 278 302 222 243 11 237 261 346 264 248 229 218 22 353 318 229 218 247 240 265 287 266 236 204 198 223 221 212 246
195 195 198 187 185 182 156 122 125 153 175 204 225 255 247 247 269 244 212 209 223 30 280 321 0 35 16 22 74 4 342 249 239 261 265 253 243 244 225 218 101 208 205 238
202 201 201 196 193 186 177 145 78 211 198 223 170 54 268 258 257 246 258 302 273 255 268 206 279 327 34 360 49 38 355 282 249 240 250 291 224 240 223 212 215 222 224 161
212 206 204 200 196 191 188 172 209 179 177 232 215 210 266 253 263 217 222 235 234 251 262 260 244 247 293 240 219 108 109 343 357 10 8 358 346 336 17 224 50 218 235 197
220 200 205 201 197 197 202 163 166 192 213 235 193 211 235 249 256 263 259 227 234 220 235 234 249 182 190 203 211 167 199 56 358 319 88 348 324 325 330 284 263 246 257 289
208 204 207 207 203 202 203 206 187 148 218 189 213 221 233 256 273 262 248 248 229 230 227 233 236 191 226 199 182 220 148 141 207 275 144 90 278 237 250 231 228 223 258 253
218 216 213 215 212 216 223 201 201 185 254 203 212 251 261 267 272 265 278 277 216 228 256 168 180 199 224 229 227 207 190 183 176 237 164 181 237 242 274 270 264 256 247 236
239 236 228 226 225 221 226 221 213 212 252 231 242 243 257 268 274 266 269 270 259 260 246 228 185 198 284 226 228 220 197 169 195 204 201 293 283 223 161 128 284 280 218 223
253 247 239 230 229 228 232 230 231 228 259 244 242 255 255 270 273 279 275 259 255 217 168 191 187 178 193 200 216 213 186 162 150 129 153 236 189 143 142 164 292 322 238 278
255 245 240 237 241 236 235 240 234 233 242 253 256 229 247 233 260 274 291 245 215 205 187 174 154 181 203 187 158 161 128 42 212 210 234 276 268 270 177 142 241 310 344 174
257 253 251 252 248 239 236 242 234 228 246 256 251 246 244 252 245 248 261 213 189 203 182 182 164 169 214 135 209 185 160 151 181 180 198 268 217 299 118 213 296 260 221 212
256 258 258 255 253 247 246 250 248 240 237 250 255 251 256 248 252 256 271 289 148 179 180 199 132 143 105 153 218 163 213 173 186 180 213 260 289 269 303 306 278 259 218 222
260 262 267 269 265 257 245 245 244 239 236 256 254 254 258 255 253 250 247 250 199 186 264 186 149 128 128 147 232 155 20 348 172 110 245 240 287 299 282 287 274 267 228 211
270 280 281 279 275 262 238 232 232 220 216 245 269 265 266 267 256 257 239 233 181 176 187 220 111 144 167 182 175 159 188 153 182 270 273 280 262 228 237 183 212 203 203 210
288 291 285 276 238 218 209 209 215 215 203 255 289 282 274 207 216 224 200 194 181 156 134 95 162 144 104 9 65 223 178 184 164 228 228 216 258 247 241 222 224 228 225 199
295 281 350 311 197 171 180 201 207 205 214 244 258 270 169 174 66 131 161 157 175 163 123 157 118 105 106 115 229 237 215 244 243 218 260 245 252 258 248 256 217 217 204 218
327 359 20 62 103 146 161 171 139 197 211 226 221 275 143 158 126 113 105 120 101 108 97 64 81 62 131 119 220 248 259 256 234 243 229 233 232 245 244 268 217 211 208 194
25 53 71 58 86 66 80 109 95 96 200 230 143 318 112 130 92 61 49 77 79 60 93 94 145 156 124 244 245 243 251 260 265 263 234 244 220 216 211 187 199 188 182 173
147 111 92 11 33 34 15 43 63 77 89 148 63 131 194 66 81 93 75 91 59 140 133 212 167 203 217 217 219 237 248 246 254 222 187 194 200 185 176 184 184 183 174 177
124 57 12 33 16 353 340 334 302 183 18 67 119 134 90 97 93 86 103 64 172 182 228 179 180 241 228 229 239 248 252 259 236 177 188 179 175 175 163 183 193 193 189 189
91 12 7 1 2 350 11 356 24 338 345 191 200 174 139 164 123 158 208 177 204 225 239 165 242 266 239 253 238 235 243 233 200 225 220 206 204 184 183 187 193 197 200 210
7 348 350 323 1 27 25 302 309 221 243 181 155 191 123 128 137 94 170 167 78 251 137 132 257 267 290 262 224 207 201 185 179 202 196 194 190 193 198 202 188 186 190 196
48 295 325 334 307 346 177 245 239 257 236 205 161 97 117 114 95 107 134 121 227 122 200 223 245 96 113 128 135 132 147 160 173 173 172 171 173 176 195 170 168 175 189 199
261 111 283 184 244 250 219 280 315 316 263 246 176 123 128 142 163 183 219 209 126 272 255 227 147 150 133 129 134 137 133 152 157 160 163 168 165 154 149 160 169 182 195 201
262 199 224 216 256 233 256 269 265 258 261 182 140 104 92 146 185 203 90 30 245 205 228 228 156 155 158 152 148 148 162 159 159 161 165 165 164 162 159 167 179 189 204 202
223 228 283 331 12 333 342 302 288 352 322 210 232 137 119 201 161 136 211 166 218 221 222 171 162 166 187 187 184 180 172 172 168 159 161 163 173 168 167 173 182 186 196 200
257 268 248 286 278 262 285 289 305 342 320 261 85 85 184 105 40 213 139 194 208 163 163 179 200 196 189 183 186 188 187 178 159 159 160 164 168 175 174 175 176 182 186 197